User: anonymous   Login
Location: Unspecified
(0.0000°N, 0.0000°E)
Time: 01:47:33
(UTC+00:00)
Language:

USA 274 DEB - Orbit

View from above orbital plane
View from above orbital plane
View from above satellite
View from above satellite

Ground track
Ground track

The orbit data is extracted from the following two-line orbital elements,

1 42065U 17011B   18146.87620319 0.00000000  00000-0  00000-0 0    06
2 42065  63.4398  82.7196 0088000 177.0741 182.9259 13.40753836    04
Epoch (UTC): 26 May 2018 21:01:43
Eccentricity: 0.0088000
inclination: 63.4398°
perigee height: 1040 km
apogee height: 1172 km
right ascension of ascending node: 82.7196°
argument of perigee: 177.0741°
revolutions per day: 13.40753836
mean anomaly at epoch: 182.9259°
orbit number at epoch: 0

The dashed part of the orbit path shows where the satellite is in the earth's shadow,  

DLR